Wind_Speed
0 1 2 2 2 2 2 3 3 3 3 3 4 4 4 5 5 5 5 5 5 6 6 5 5 5 5 6 6 6 6 6 6 6 6 6 7 7 7 7 7 7 7 7 8 9 9 9 10
1 2 2 2 1 1 2 2 2 3 3 3 4 4 4 5 5 6 5 5 6 6 5 5 5 5 6 6 6 6 6 6 6 6 6 6 7 8 8 8 7 7 7 8 8 8 9 10 10
2 2 2 2 2 2 2 2 3 3 3 4 4 4 4 5 5 5 6 6 6 6 5 5 5 6 6 6 6 5 6 6 6 6 5 6 7 8 8 7 7 7 8 8 8 9 9 9 10
2 3 3 2 2 2 2 3 3 4 4 4 4 4 4 5 5 6 6 6 6 5 5 4 5 5 5 5 5 5 5 5 5 5 5 6 7 8 7 7 8 8 9 8 8 9 9 9 9
3 3 3 2 2 3 3 3 3 4 4 4 4 4 4 5 6 6 6 6 5 5 4 4 4 5 4 5 5 5 5 5 5 5 5 6 7 7 7 7 8 8 9 8 8 9 9 10 9
3 3 3 3 3 3 3 4 4 3 3 3 4 4 4 5 6 6 6 5 5 5 5 5 4 3 4 4 4 4 4 4 5 5 6 7 8 8 8 7 7 7 8 8 8 9 9 9 10
3 3 4 4 3 3 4 3 3 3 4 4 4 4 4 5 5 5 5 6 5 5 5 5 4 3 3 3 4 3 3 3 4 5 5 6 7 7 8 8 8 8 8 8 8 9 9 10 10
4 4 4 4 3 3 3 3 3 4 4 3 4 4 4 4 5 5 5 5 5 5 5 5 4 4 4 4 4 3 3 4 4 4 5 6 5 7 7 8 8 8 8 8 8 9 9 9 10
4 4 4 4 4 3 3 4 4 4 3 3 3 4 4 4 4 5 5 5 5 5 5 5 4 4 4 4 4 4 4 4 4 5 5 4 4 5 6 7 7 7 8 8 9 9 9 9 10
4 4 4 4 4 4 3 4 4 3 3 3 3 4 4 4 4 4 5 5 5 5 5 5 4 4 4 4 4 4 4 4 5 5 6 5 4 4 5 5 5 7 7 8 9 9 9 10 10
5 4 4 4 4 4 4 4 4 3 3 3 3 3 3 3 4 5 5 4 4 5 5 5 4 4 4 4 4 4 4 5 5 6 6 6 5 4 5 5 5 6 7 8 9 10 10 10 10
6 5 5 5 4 3 3 4 3 3 2 2 2 3 3 3 4 4 4 4 4 4 5 5 4 4 4 4 5 5 5 5 6 6 5 6 5 5 6 6 6 6 7 8 9 9 9 9 10
7 6 6 6 5 4 4 4 4 3 3 2 3 3 3 4 4 4 4 4 4 4 4 5 5 5 4 4 5 5 5 6 6 6 5 5 5 5 6 7 6 6 7 8 9 9 9 10 10
7 7 7 7 6 6 5 4 4 3 3 3 3 3 3 3 3 3 3 4 4 4 4 5 5 5 5 5 5 6 6 6 6 6 6 6 6 6 6 7 7 7 7 8 9 9 9 10 10
8 8 8 8 7 6 6 5 4 4 4 3 4 4 4 4 4 4 4 4 4 4 5 5 5 5 5 6 5 5 6 6 7 7 7 7 7 7 7 7 7 7 7 8 9 9 9 9 10
9 9 8 8 7 7 6 5 5 5 5 4 4 4 5 5 5 4 4 4 4 5 5 5 5 6 6 6 6 6 6 7 7 7 7 7 8 8 8 8 8 8 8 8 9 9 9 9 10
9 9 8 8 7 7 7 6 6 6 6 5 5 4 5 5 5 5 5 5 5 5 5 6 6 6 6 6 6 6 7 8 8 8 8 9 9 9 9 9 9 9 9 9 9 9 9 9 9
9 9 8 8 8 7 8 7 8 7 6 6 6 5 6 6 6 5 5 5 5 5 5 6 6 7 7 7 7 7 7 8 8 9 9 10 10 9 9 9 9 9 9 9 9 9 9 9 9
9 9 8 8 8 8 8 8 9 8 7 7 7 6 6 6 6 6 6 6 6 6 7 7 7 7 7 8 8 8 8 8 9 9 10 11 10 10 10 10 10 10 9 10 9 9 9 8 9
10 10 9 9 9 8 8 8 9 8 8 8 7 7 6 6 6 6 6 6 6 7 7 8 7 8 8 9 9 10 10 10 10 11 11 11 11 11 11 11 10 10 9 10 10 9 9 9 9
11 10 10 10 9 9 9 9 9 9 9 8 8 7 7 7 7 7 7 7 7 7 8 8 9 9 10 10 10 11 12 12 12 11 11 11 11 12 12 11 11 11 10 10 10 10 10 10 10
11 11 11 11 11 10 10 9 8 8 8 9 9 8 7 7 7 8 8 8 8 8 8 9 9 10 11 11 12 12 12 13 12 12 12 12 12 12 12 12 12 11 11 11 11 11 10 10 10
11 11 11 11 11 10 10 10 9 9 8 9 10 9 9 8 8 9 9 9 9 9 9 9 10 11 12 12 12 12 13 12 12 12 12 12 12 13 13 13 13 12 12 11 11 11 12 12 12
11 11 11 11 11 11 10 10 9 9 9 9 9 9 10 10 10 10 10 10 10 11 11 11 11 12 13 13 13 13 13 13 13 13 13 13 13 13 13 13 13 13 13 13 12 12 13 13 12
12 12 12 12 12 12 11 11 10 10 11 11 11 11 12 12 11 12 12 12 12 12 12 12 13 13 14 14 14 14 14 14 15 15 15 15 14 14 14 13 13 14 14 13 13 14 13 13 13
12 12 13 13 13 13 13 13 12 12 12 13 13 13 13 14 14 14 14 14 14 13 14 14 14 14 15 15 15 14 15 15 16 16 16 15 15 15 14 14 14 14 15 14 14 14 14 14 14
13 13 14 14 14 14 14 14 14 13 13 14 15 15 15 15 16 16 16 16 15 15 15 16 16 16 16 16 16 16 16 16 16 16 16 16 16 15 15 15 15 15 15 15 15 16 15 15 16
15 14 15 16 16 16 15 15 15 15 15 15 16 17 17 17 17 17 17 17 17 17 17 17 17 17 17 17 17 17 17 18 17 17 17 17 17 17 16 16 16 16 16 16 16 16 16 17 17
16 15 16 17 17 17 17 16 16 16 17 17 17 18 18 18 18 18 18 18 18 18 18 18 18 19 18 18 18 19 19 19 19 19 19 19 19 18 18 18 17 17 17 17 17 17 17 17 17
17 16 16 17 17 18 18 18 17 17 17 18 18 19 19 19 19 19 19 19 19 19 19 19 19 20 20 19 19 19 20 20 20 20 19 20 20 20 20 19 19 19 18 18 18 18 18 18 18
Wind_Direction
190 277 289 303 285 278 281 302 313 311 310 317 317 321 329 337 341 334 328 321 309 296 285 285 286 294 296 293 289 282 278 276 276 274 269 263 255 252 255 258 259 260 261 265 269 265 263 262 263
295 295 310 311 319 315 293 308 313 313 315 320 322 321 323 335 333 333 328 328 320 305 295 295 298 298 295 293 286 277 274 274 276 275 271 267 261 256 255 257 257 261 261 263 268 268 264 263 264
301 296 306 312 313 311 311 311 315 314 316 317 321 332 331 334 335 330 324 323 321 307 303 313 306 300 299 294 288 284 282 279 276 274 271 269 262 257 252 253 253 257 261 267 266 266 265 266 266
309 307 308 303 302 307 300 303 315 322 320 321 323 329 334 336 333 328 324 323 325 316 310 315 308 306 302 296 294 294 292 284 280 276 271 271 264 256 248 250 254 258 262 268 262 261 264 266 269
305 305 309 313 314 313 311 304 307 317 318 323 326 330 338 339 340 339 334 334 336 335 330 326 316 315 315 306 302 301 297 285 275 277 275 272 266 256 251 249 253 256 263 268 263 264 266 265 265
306 311 317 317 319 321 317 306 310 318 324 325 327 331 337 338 341 344 344 343 340 339 338 336 330 322 327 324 318 313 308 289 276 276 274 271 266 261 255 250 249 253 259 264 263 265 265 265 266
306 311 308 310 318 326 322 321 329 332 324 327 328 329 339 342 342 343 346 344 341 341 346 347 340 331 330 330 319 310 297 294 299 287 278 276 270 260 256 255 254 253 252 254 259 263 263 267 267
324 325 316 307 309 319 324 329 331 332 325 330 331 332 347 344 342 341 339 339 339 340 347 353 348 346 342 338 328 316 308 304 301 288 285 287 263 261 261 257 257 256 254 256 262 266 268 268 267
323 321 324 328 328 325 327 331 338 340 330 333 334 332 340 336 338 338 336 336 339 342 347 350 347 345 344 338 334 331 324 317 313 298 293 304 278 267 261 259 256 253 254 258 263 266 267 270 270
313 313 318 319 318 316 317 319 327 338 330 328 326 328 334 333 332 333 334 337 343 349 351 352 349 350 350 343 336 332 319 313 313 309 304 309 302 278 268 266 260 259 257 260 262 265 270 272 271
299 299 296 297 306 305 301 305 317 328 325 329 330 329 330 332 331 333 330 331 339 347 353 355 353 356 352 347 340 329 321 316 316 316 317 311 309 294 278 271 270 266 263 263 264 264 270 272 271
285 286 286 288 294 293 292 297 306 312 319 325 329 330 336 330 331 328 324 327 335 342 348 348 352 356 351 343 337 333 329 323 323 321 317 308 304 300 298 292 287 276 269 267 266 269 271 274 273
282 280 284 287 285 290 298 303 305 301 299 303 314 317 325 326 324 323 323 325 330 338 342 339 338 340 342 336 332 331 328 322 322 325 322 313 310 304 299 295 289 278 272 272 276 276 275 277 275
278 276 279 284 284 282 282 286 294 288 290 301 304 307 313 322 331 329 328 326 326 329 334 335 332 333 334 333 332 330 327 324 321 319 315 312 310 308 303 300 295 285 279 277 281 282 279 277 275
275 276 277 279 278 278 275 273 275 279 279 289 299 302 303 315 321 327 330 323 323 324 326 327 325 327 328 329 330 328 324 324 320 317 312 313 312 309 305 300 296 291 288 284 283 285 284 280 276
273 273 274 276 275 273 270 271 272 270 274 280 288 300 303 310 313 317 321 319 318 319 322 326 327 327 326 326 324 321 317 317 317 318 315 313 311 310 307 303 297 293 291 290 288 290 290 289 284
266 270 271 273 274 271 269 270 270 271 275 277 282 291 300 305 309 313 314 312 308 307 313 319 325 328 325 323 323 321 316 315 315 317 316 313 310 308 307 305 301 295 291 288 289 291 292 292 289
266 268 269 269 270 269 267 267 272 274 276 276 280 288 292 296 300 305 309 312 305 303 307 312 318 320 318 315 317 321 318 315 313 313 312 312 312 310 307 306 303 300 293 289 289 292 294 293 290
265 267 268 269 269 266 264 266 271 268 271 277 278 279 283 289 292 296 303 307 304 304 305 308 310 311 313 314 313 313 313 311 310 309 309 311 310 311 308 306 302 298 294 289 289 290 293 292 292
261 263 266 267 269 267 263 263 267 266 267 273 278 275 274 281 289 291 293 294 298 302 305 307 308 309 311 312 312 309 307 307 307 305 305 306 306 306 307 305 300 294 291 288 285 284 286 288 290
257 261 265 268 267 265 262 261 265 268 266 267 273 275 274 276 284 291 290 291 295 300 301 304 308 309 308 308 307 306 305 306 305 302 302 303 304 305 304 303 300 295 288 284 282 280 280 283 287
256 260 264 265 268 266 265 265 262 267 269 268 269 270 273 278 282 285 285 286 291 293 296 303 307 307 306 303 303 303 303 303 303 302 300 302 302 302 301 298 294 292 289 285 280 278 277 280 283
261 261 263 265 269 269 268 269 260 262 268 269 268 270 275 277 280 284 285 285 287 291 293 299 302 302 303 302 302 302 303 303 304 302 299 300 301 300 299 296 292 289 286 285 283 278 276 278 281
262 260 261 264 266 270 272 269 261 262 267 269 269 270 273 274 277 278 280 282 285 287 290 292 295 298 300 301 301 302 301 301 302 301 299 299 300 299 298 295 290 288 287 284 282 279 278 278 280
262 261 261 263 267 272 271 270 266 266 268 270 272 273 273 274 276 279 280 284 285 286 286 287 290 294 298 299 298 298 298 299 299 298 297 298 298 297 295 294 290 289 286 284 281 281 278 277 278
262 262 262 265 270 273 270 269 272 270 269 268 271 272 272 276 278 279 282 284 285 286 286 287 289 292 295 297 298 297 297 299 299 297 296 296 295 295 294 293 292 290 288 284 282 281 279 276 276
260 262 265 267 272 273 274 273 271 269 270 271 272 273 274 276 279 281 282 282 282 283 285 287 290 290 292 293 296 296 296 297 297 296 297 297 296 295 295 294 292 292 290 286 282 280 279 277 277
260 263 265 267 271 273 275 276 276 276 274 276 276 275 276 275 277 278 280 282 280 280 282 283 286 287 289 292 292 293 294 294 294 294 295 295 294 292 293 294 291 290 288 285 283 282 278 275 274
261 262 265 268 272 276 276 277 278 277 276 275 276 277 278 278 277 279 279 280 280 281 282 282 285 285 286 289 290 290 291 291 292 292 292 292 291 290 289 290 289 287 286 283 282 280 277 275 274
262 263 267 270 273 276 278 278 279 279 277 276 275 275 278 280 279 280 281 282 281 281 282 284 284 285 285 286 287 287 288 289 289 290 290 290 289 290 288 287 287 286 283 281 282 279 278 277 277
Height
5860 5861 5862 5863 5864 5864 5863 5863 5863 5862 5862 5861 5861 5861 5860 5860 5861 5862 5860 5858 5857 5857 5857 5857 5856 5856 5856 5856 5855 5855 5855 5856 5856 5856 5856 5856 5857 5857 5858 5858 5859 5860 5860 5860 5860 5861 5861 5861 5862
5861 5862 5863 5864 5863 5863 5863 5863 5863 5862 5862 5861 5861 5860 5860 5860 5859 5859 5858 5857 5857 5856 5856 5856 5855 5855 5855 5854 5854 5854 5854 5854 5854 5854 5854 5854 5855 5856 5856 5857 5857 5858 5858 5859 5859 5859 5859 5859 5860
5862 5863 5864 5864 5863 5863 5864 5863 5862 5862 5862 5861 5861 5860 5860 5859 5859 5858 5858 5857 5856 5856 5855 5855 5854 5854 5854 5853 5853 5853 5852 5853 5853 5853 5853 5853 5853 5854 5854 5855 5855 5856 5856 5857 5857 5858 5857 5858 5858
5863 5864 5864 5864 5863 5863 5863 5862 5862 5861 5861 5861 5860 5860 5859 5859 5858 5858 5857 5856 5856 5855 5854 5854 5853 5853 5852 5852 5852 5851 5851 5851 5851 5851 5851 5851 5851 5851 5852 5853 5853 5854 5854 5855 5855 5856 5856 5856 5856
5864 5864 5864 5863 5863 5863 5862 5862 5861 5861 5861 5860 5860 5859 5859 5858 5858 5857 5856 5856 5855 5855 5854 5853 5852 5852 5851 5851 5850 5850 5850 5850 5850 5850 5850 5850 5850 5850 5850 5851 5851 5852 5852 5853 5853 5854 5854 5854 5854
5864 5864 5864 5863 5863 5863 5862 5862 5861 5861 5860 5860 5859 5859 5858 5858 5857 5857 5856 5855 5855 5854 5853 5852 5851 5851 5850 5850 5850 5849 5849 5849 5849 5849 5849 5848 5848 5848 5848 5849 5849 5850 5850 5851 5851 5852 5852 5852 5852
5864 5864 5863 5863 5863 5862 5862 5861 5861 5860 5860 5859 5859 5859 5858 5857 5857 5856 5856 5855 5854 5854 5853 5852 5851 5850 5850 5849 5849 5848 5848 5848 5848 5847 5847 5846 5846 5846 5846 5847 5847 5848 5848 5849 5849 5850 5850 5850 5850
5863 5864 5863 5862 5862 5862 5862 5861 5860 5860 5860 5859 5859 5858 5858 5857 5857 5856 5855 5855 5854 5853 5852 5851 5850 5850 5849 5848 5848 5848 5847 5847 5847 5846 5846 5845 5844 5844 5845 5846 5846 5846 5847 5847 5848 5848 5848 5848 5848
5863 5864 5862 5862 5862 5862 5861 5861 5860 5860 5859 5859 5858 5858 5858 5857 5856 5856 5855 5854 5854 5853 5852 5851 5850 5849 5848 5848 5847 5847 5847 5846 5846 5845 5845 5844 5842 5843 5843 5844 5844 5844 5845 5845 5846 5846 5846 5846 5846
5862 5862 5862 5862 5862 5861 5861 5861 5860 5859 5859 5859 5858 5858 5857 5856 5856 5855 5854 5854 5853 5852 5851 5850 5850 5849 5848 5848 5847 5847 5846 5846 5845 5844 5844 5843 5842 5842 5842 5842 5842 5843 5843 5843 5844 5844 5844 5844 5844
5862 5862 5862 5861 5861 5861 5860 5860 5859 5859 5859 5858 5858 5857 5856 5856 5855 5854 5854 5853 5852 5852 5851 5850 5849 5849 5848 5847 5847 5846 5846 5845 5844 5844 5843 5843 5842 5842 5841 5841 5841 5841 5842 5842 5842 5842 5842 5842 5842
5861 5861 5861 5861 5860 5860 5860 5859 5859 5859 5859 5858 5857 5857 5856 5855 5855 5854 5853 5853 5852 5851 5850 5850 5849 5849 5848 5847 5846 5846 5845 5844 5844 5843 5842 5842 5841 5841 5841 5841 5840 5840 5840 5840 5840 5840 5840 5840 5840
5861 5860 5860 5860 5860 5860 5859 5859 5859 5859 5858 5858 5857 5856 5856 5855 5854 5854 5853 5852 5851 5851 5850 5849 5849 5848 5847 5847 5846 5845 5844 5844 5843 5842 5842 5841 5840 5840 5840 5839 5839 5839 5838 5838 5838 5838 5838 5838 5838
5859 5859 5859 5859 5859 5859 5859 5859 5858 5858 5858 5857 5857 5856 5855 5855 5854 5853 5852 5852 5851 5850 5850 5849 5848 5847 5847 5846 5845 5844 5844 5843 5842 5841 5840 5840 5839 5839 5838 5838 5837 5837 5837 5836 5836 5836 5836 5836 5835
5858 5858 5858 5858 5858 5858 5858 5858 5858 5857 5857 5856 5856 5855 5855 5854 5853 5853 5852 5851 5850 5850 5849 5848 5848 5847 5846 5845 5844 5844 5843 5842 5841 5840 5839 5839 5838 5837 5837 5836 5836 5835 5835 5834 5834 5834 5833 5833 5833
5856 5857 5857 5857 5856 5857 5858 5857 5857 5856 5856 5855 5855 5854 5853 5853 5852 5852 5851 5850 5849 5849 5848 5848 5847 5846 5845 5844 5843 5843 5842 5841 5840 5839 5838 5837 5837 5836 5835 5834 5834 5833 5832 5832 5832 5832 5831 5830 5830
5854 5855 5855 5855 5855 5855 5855 5855 5855 5855 5855 5854 5854 5853 5853 5852 5851 5851 5850 5849 5849 5848 5847 5847 5846 5845 5844 5843 5842 5842 5841 5840 5839 5838 5837 5836 5835 5834 5833 5832 5831 5831 5830 5830 5830 5829 5829 5828 5827
5853 5853 5853 5853 5853 5853 5853 5854 5854 5853 5853 5853 5853 5852 5852 5851 5850 5849 5849 5848 5847 5847 5846 5846 5845 5844 5843 5842 5841 5841 5840 5839 5837 5836 5835 5834 5833 5832 5831 5830 5829 5829 5828 5828 5827 5827 5826 5825 5825
5851 5851 5851 5851 5851 5852 5852 5852 5852 5852 5852 5851 5851 5851 5850 5850 5849 5848 5847 5847 5846 5846 5845 5844 5843 5842 5842 5841 5840 5839 5838 5837 5836 5835 5834 5833 5831 5830 5829 5828 5827 5826 5826 5825 5825 5824 5824 5823 5822
5848 5849 5849 5849 5849 5849 5850 5850 5850 5850 5850 5850 5849 5849 5849 5848 5847 5847 5846 5845 5845 5844 5843 5843 5842 5841 5840 5839 5838 5837 5836 5835 5834 5833 5831 5830 5829 5828 5827 5826 5825 5824 5823 5823 5822 5822 5821 5821 5820
5846 5847 5847 5847 5847 5847 5848 5849 5848 5848 5848 5848 5848 5847 5847 5847 5846 5845 5844 5844 5843 5842 5841 5841 5840 5839 5838 5837 5836 5835 5834 5833 5831 5830 5829 5828 5827 5826 5824 5823 5822 5821 5821 5820 5819 5819 5819 5818 5818
5843 5844 5845 5845 5845 5845 5846 5846 5846 5846 5846 5846 5846 5845 5845 5844 5844 5843 5843 5842 5841 5840 5839 5839 5838 5837 5836 5835 5834 5833 5831 5830 5829 5827 5826 5825 5824 5823 5822 5821 5820 5819 5818 5817 5817 5816 5816 5816 5815
5841 5841 5842 5842 5842 5843 5843 5843 5845 5844 5844 5844 5843 5843 5843 5842 5842 5841 5840 5840 5839 5838 5837 5836 5835 5835 5833 5832 5831 5830 5828 5827 5826 5824 5823 5822 5821 5820 5818 5817 5817 5816 5815 5814 5814 5813 5813 5813 5812
5838 5839 5839 5839 5840 5840 5841 5841 5841 5841 5841 5841 5841 5841 5840 5840 5839 5838 5838 5837 5836 5836 5835 5834 5833 5832 5831 5829 5828 5827 5825 5824 5823 5821 5820 5819 5818 5816 5815 5814 5813 5812 5812 5811 5810 5809 5809 5809 5809
5835 5836 5837 5836 5837 5838 5838 5837 5839 5838 5838 5838 5838 5838 5837 5837 5836 5835 5834 5834 5833 5832 5832 5831 5830 5829 5828 5826 5825 5824 5822 5821 5819 5818 5816 5815 5814 5813 5812 5810 5809 5809 5808 5807 5806 5806 5805 5805 5805
5832 5833 5834 5834 5834 5834 5834 5834 5835 5835 5835 5835 5835 5834 5834 5833 5833 5832 5831 5831 5830 5829 5828 5827 5826 5825 5824 5823 5821 5820 5819 5817 5816 5814 5813 5812 5810 5809 5808 5807 5806 5805 5804 5803 5802 5802 5801 5801 5801
5829 5829 5831 5831 5830 5831 5831 5831 5831 5831 5832 5831 5831 5830 5830 5829 5829 5828 5828 5827 5826 5825 5824 5823 5823 5821 5820 5819 5818 5816 5815 5813 5812 5810 5809 5808 5806 5805 5804 5803 5802 5800 5799 5798 5798 5797 5797 5797 5797
5826 5826 5827 5827 5826 5826 5827 5827 5828 5828 5828 5827 5827 5826 5826 5825 5825 5824 5823 5822 5822 5821 5820 5819 5818 5817 5816 5814 5813 5812 5810 5809 5807 5806 5805 5804 5802 5801 5800 5799 5797 5796 5795 5794 5793 5793 5793 5793 5792
5822 5823 5822 5822 5823 5823 5823 5826 5824 5823 5823 5823 5822 5822 5821 5820 5820 5819 5818 5818 5817 5816 5815 5814 5814 5813 5811 5810 5809 5807 5806 5804 5803 5802 5800 5799 5798 5797 5795 5794 5793 5792 5791 5790 5789 5788 5788 5788 5788
5817 5818 5819 5819 5819 5818 5818 5822 5819 5819 5818 5818 5818 5817 5816 5815 5815 5814 5813 5813 5812 5811 5810 5809 5808 5807 5806 5805 5803 5802 5801 5800 5798 5797 5795 5794 5793 5792 5790 5789 5788 5787 5786 5785 5784 5783 5783 5783 5783